Time,TemperatureF,DewpointF,PressureIn,WindDirection,WindDirectionDegrees,WindSpeedMPH,WindSpeedGustMPH,Humidity,HourlyPrecipIn,Conditions,Clouds,dailyrainin,SoftwareType,DateUTC
2013-03-22 00:02:00,19.0,8.0,29.88,SSW,198,11.0,16.0,61,0.00,,,0.01,,2013-03-22 06:02:00,
2013-03-22 00:12:00,19.0,8.0,29.88,SSW,198,11.0,16.0,61,0.00,,,0.01,,2013-03-22 06:12:00,
2013-03-22 00:22:00,20.0,8.0,29.88,SSW,207,7.0,17.0,60,0.00,,,0.01,,2013-03-22 06:22:00,
2013-03-22 00:32:00,19.0,7.0,29.87,SSW,196,4.0,13.0,60,0.00,,,0.01,,2013-03-22 06:32:00,
2013-03-22 00:42:00,19.0,7.0,29.87,SSW,196,4.0,13.0,60,0.00,,,0.01,,2013-03-22 06:42:00,
2013-03-22 00:52:00,18.0,6.0,29.87,South,184,5.0,11.0,60,0.00,,,0.01,,2013-03-22 06:52:00,
2013-03-22 01:02:00,17.0,5.0,29.86,South,186,2.0,5.0,59,0.00,,,0.01,,2013-03-22 07:02:00,
2013-03-22 01:12:00,17.0,5.0,29.86,South,186,2.0,5.0,59,0.00,,,0.01,,2013-03-22 07:12:00,
2013-03-22 01:22:00,17.0,5.0,29.86,South,169,7.0,10.0,58,0.00,,,0.01,,2013-03-22 07:22:00,
2013-03-22 01:32:00,17.0,5.0,29.88,SSW,201,3.0,7.0,58,0.00,,,0.01,,2013-03-22 07:32:00,
2013-03-22 01:42:00,17.0,5.0,29.88,SSW,201,3.0,7.0,58,0.00,,,0.01,,2013-03-22 07:42:00,
2013-03-22 01:52:00,17.0,5.0,29.87,SW,228,3.0,11.0,58,0.00,,,0.01,,2013-03-22 07:52:00,
2013-03-22 02:03:00,17.0,4.0,29.87,SSW,205,6.0,12.0,57,0.00,,,0.01,,2013-03-22 08:03:00,
2013-03-22 02:12:00,17.0,4.0,29.87,SSW,205,6.0,12.0,57,0.00,,,0.01,,2013-03-22 08:12:00,
2013-03-22 02:22:00,17.0,4.0,29.86,WSW,237,3.0,5.0,57,0.00,,,0.01,,2013-03-22 08:22:00,
2013-03-22 02:32:00,16.0,4.0,29.85,SW,236,0.0,5.0,58,0.00,,,0.01,,2013-03-22 08:32:00,
2013-03-22 02:42:00,16.0,4.0,29.85,SW,236,0.0,5.0,58,0.00,,,0.01,,2013-03-22 08:42:00,
2013-03-22 02:52:00,17.0,5.0,29.85,South,176,6.0,13.0,59,0.00,,,0.01,,2013-03-22 08:52:00,
2013-03-22 03:02:00,17.0,5.0,29.85,SW,221,1.0,14.0,58,0.00,,,0.01,,2013-03-22 09:02:00,
2013-03-22 03:12:00,17.0,5.0,29.85,SW,221,1.0,14.0,58,0.00,,,0.01,,2013-03-22 09:12:00,
2013-03-22 03:22:00,17.0,5.0,29.84,South,170,2.0,7.0,58,0.00,,,0.01,,2013-03-22 09:22:00,
2013-03-22 03:32:00,17.0,6.0,29.84,SW,228,3.0,7.0,60,0.00,,,0.01,,2013-03-22 09:32:00,
2013-03-22 03:42:00,17.0,6.0,29.84,SW,228,3.0,7.0,60,0.00,,,0.01,,2013-03-22 09:42:00,
2013-03-22 03:53:00,18.0,6.0,29.83,WSW,250,4.0,10.0,59,0.00,,,0.01,,2013-03-22 09:53:00,
2013-03-22 04:03:00,16.0,5.0,29.83,South,173,2.0,7.0,60,0.00,,,0.01,,2013-03-22 10:03:00,
2013-03-22 04:12:00,16.0,5.0,29.83,South,173,2.0,7.0,60,0.00,,,0.01,,2013-03-22 10:12:00,
2013-03-22 04:22:00,17.0,6.0,29.82,South,183,1.0,11.0,60,0.00,,,0.01,,2013-03-22 10:22:00,
2013-03-22 04:32:00,16.0,6.0,29.81,South,173,2.0,7.0,63,0.00,,,0.01,,2013-03-22 10:32:00,
2013-03-22 04:42:00,16.0,6.0,29.81,South,173,2.0,7.0,63,0.00,,,0.01,,2013-03-22 10:42:00,
2013-03-22 04:52:00,17.0,6.0,29.81,SSW,201,4.0,12.0,62,0.00,,,0.01,,2013-03-22 10:52:00,
2013-03-22 05:03:00,17.0,5.0,29.81,South,184,5.0,13.0,59,0.00,,,0.01,,2013-03-22 11:03:00,
2013-03-22 05:12:00,17.0,5.0,29.81,South,184,5.0,13.0,59,0.00,,,0.01,,2013-03-22 11:12:00,
2013-03-22 05:22:00,17.0,5.0,29.80,SSE,167,6.0,15.0,59,0.00,,,0.01,,2013-03-22 11:22:00,
2013-03-22 05:32:00,17.0,5.0,29.80,SSW,195,4.0,15.0,58,0.00,,,0.01,,2013-03-22 11:32:00,
2013-03-22 05:42:00,17.0,5.0,29.80,SSW,195,4.0,15.0,58,0.00,,,0.01,,2013-03-22 11:42:00,
2013-03-22 05:52:00,17.0,4.0,29.80,SSE,164,2.0,14.0,57,0.00,,,0.01,,2013-03-22 11:52:00,
2013-03-22 06:02:00,17.0,4.0,29.80,West,280,3.0,15.0,57,0.00,,,0.01,,2013-03-22 12:02:00,
2013-03-22 06:12:00,16.0,3.0,29.79,SSW,205,2.0,12.0,57,0.00,,,0.01,,2013-03-22 12:12:00,
2013-03-22 06:22:00,16.0,3.0,29.79,SSW,205,2.0,12.0,57,0.00,,,0.01,,2013-03-22 12:22:00,
2013-03-22 06:32:00,16.0,4.0,29.79,SW,230,8.0,14.0,59,0.00,,,0.01,,2013-03-22 12:32:00,
2013-03-22 06:42:00,16.0,4.0,29.79,SW,230,8.0,14.0,59,0.00,,,0.01,,2013-03-22 12:42:00,
2013-03-22 06:52:00,15.0,4.0,29.79,WSW,237,1.0,6.0,60,0.00,,,0.01,,2013-03-22 12:52:00,
2013-03-22 07:02:00,16.0,4.0,29.79,NNE,13,4.0,9.0,58,0.00,,,0.01,,2013-03-22 13:02:00,
2013-03-22 07:12:00,16.0,4.0,29.79,NNE,13,4.0,9.0,58,0.00,,,0.01,,2013-03-22 13:12:00,
2013-03-22 07:22:00,15.0,3.0,29.78,NE,34,0.0,4.0,58,0.00,,,0.01,,2013-03-22 13:22:00,
2013-03-22 07:32:00,15.0,3.0,29.78,NE,40,2.0,3.0,58,0.00,,,0.01,,2013-03-22 13:32:00,
2013-03-22 07:42:00,15.0,3.0,29.78,NE,40,2.0,3.0,58,0.00,,,0.01,,2013-03-22 13:42:00,
2013-03-22 07:52:00,16.0,4.0,29.78,NE,55,0.0,4.0,59,0.00,,,0.01,,2013-03-22 13:52:00,
2013-03-22 08:02:00,17.0,2.0,29.78,SSE,147,2.0,10.0,52,0.00,,,0.01,,2013-03-22 14:02:00,
2013-03-22 08:12:00,17.0,2.0,29.78,SSE,147,2.0,10.0,52,0.00,,,0.01,,2013-03-22 14:12:00,
2013-03-22 08:22:00,20.0,4.0,29.78,South,190,3.0,15.0,48,0.00,,,0.01,,2013-03-22 14:22:00,
2013-03-22 08:32:00,21.0,3.0,29.77,WSW,244,4.0,21.0,45,0.00,,,0.01,,2013-03-22 14:32:00,
2013-03-22 08:42:00,21.0,3.0,29.77,WSW,244,4.0,21.0,45,0.00,,,0.01,,2013-03-22 14:42:00,
2013-03-22 08:52:00,22.0,3.0,29.77,WSW,256,10.0,17.0,43,0.00,,,0.01,,2013-03-22 14:52:00,
2013-03-22 09:02:00,23.0,3.0,29.77,WSW,252,5.0,19.0,42,0.00,,,0.01,,2013-03-22 15:02:00,
2013-03-22 09:12:00,23.0,3.0,29.77,WSW,252,5.0,19.0,42,0.00,,,0.01,,2013-03-22 15:12:00,
2013-03-22 09:22:00,23.0,4.0,29.77,South,190,10.0,29.0,43,0.00,,,0.01,,2013-03-22 15:22:00,
2013-03-22 09:32:00,23.0,4.0,29.77,SW,233,16.0,25.0,43,0.00,,,0.01,,2013-03-22 15:32:00,
2013-03-22 09:42:00,23.0,4.0,29.77,SW,233,16.0,25.0,43,0.00,,,0.01,,2013-03-22 15:42:00,
2013-03-22 09:53:00,24.0,4.0,29.77,WSW,247,13.0,24.0,41,0.00,,,0.01,,2013-03-22 15:53:00,
2013-03-22 10:02:00,25.0,4.0,29.77,WSW,254,5.0,21.0,40,0.00,,,0.01,,2013-03-22 16:02:00,
2013-03-22 10:13:00,26.0,5.0,29.77,SSW,207,7.0,14.0,40,0.00,,,0.01,,2013-03-22 16:13:00,
2013-03-22 10:22:00,26.0,5.0,29.77,SSW,207,7.0,14.0,40,0.00,,,0.01,,2013-03-22 16:22:00,
2013-03-22 10:32:00,26.0,6.0,29.77,SW,221,7.0,21.0,41,0.00,,,0.01,,2013-03-22 16:32:00,
2013-03-22 10:42:00,26.0,6.0,29.77,WNW,303,11.0,15.0,42,0.00,,,0.01,,2013-03-22 16:42:00,
2013-03-22 10:52:00,26.0,6.0,29.77,WNW,303,11.0,15.0,42,0.00,,,0.01,,2013-03-22 16:52:00,
2013-03-22 11:03:00,25.0,8.0,29.78,West,277,11.0,24.0,48,0.00,,,0.01,,2013-03-22 17:03:00,
2013-03-22 11:12:00,24.0,8.0,29.78,SSW,207,10.0,18.0,49,0.00,,,0.01,,2013-03-22 17:12:00,
2013-03-22 11:23:00,24.0,8.0,29.78,SSW,207,10.0,18.0,49,0.00,,,0.01,,2013-03-22 17:23:00,
2013-03-22 11:32:00,25.0,8.0,29.78,WSW,244,6.0,16.0,47,0.00,,,0.01,,2013-03-22 17:32:00,
2013-03-22 11:42:00,25.0,8.0,29.78,WSW,244,6.0,16.0,47,0.00,,,0.01,,2013-03-22 17:42:00,
2013-03-22 11:53:00,26.0,6.0,29.78,West,267,11.0,14.0,41,0.00,,,0.01,,2013-03-22 17:53:00,
2013-03-22 12:02:00,27.0,6.0,29.77,WSW,250,4.0,17.0,40,0.00,,,0.01,,2013-03-22 18:02:00,
2013-03-22 12:12:00,27.0,6.0,29.77,WSW,250,4.0,17.0,40,0.00,,,0.01,,2013-03-22 18:12:00,
2013-03-22 12:22:00,27.0,4.0,29.77,SSW,192,7.0,18.0,37,0.00,,,0.01,,2013-03-22 18:22:00,
2013-03-22 12:32:00,25.0,7.0,29.76,NW,304,3.0,21.0,46,0.00,,,0.01,,2013-03-22 18:32:00,
2013-03-22 12:42:00,25.0,7.0,29.76,NW,304,3.0,21.0,46,0.00,,,0.01,,2013-03-22 18:42:00,
2013-03-22 12:52:00,26.0,7.0,29.76,West,266,11.0,21.0,43,0.00,,,0.01,,2013-03-22 18:52:00,
2013-03-22 13:02:00,26.0,6.0,29.76,SW,227,6.0,18.0,41,0.00,,,0.01,,2013-03-22 19:02:00,
2013-03-22 13:12:00,26.0,6.0,29.75,SSW,199,8.0,15.0,42,0.00,,,0.00,,2013-03-22 19:12:00,
2013-03-22 13:22:00,26.0,6.0,29.75,SSW,199,8.0,15.0,42,0.00,,,0.00,,2013-03-22 19:22:00,
2013-03-22 13:32:00,27.0,6.0,29.75,West,273,5.0,13.0,40,0.00,,,0.00,,2013-03-22 19:32:00,
2013-03-22 13:42:00,27.0,6.0,29.75,West,273,5.0,13.0,40,0.00,,,0.00,,2013-03-22 19:42:00,
2013-03-22 13:52:00,26.0,6.0,29.75,NE,40,1.0,15.0,42,0.00,,,0.00,,2013-03-22 19:52:00,
2013-03-22 14:02:00,26.0,7.0,29.74,SW,236,8.0,13.0,43,0.00,,,0.00,,2013-03-22 20:02:00,
2013-03-22 14:12:00,26.0,7.0,29.74,SW,236,8.0,13.0,43,0.00,,,0.00,,2013-03-22 20:12:00,
2013-03-22 14:22:00,26.0,6.0,29.74,South,176,6.0,18.0,42,0.00,,,0.00,,2013-03-22 20:22:00,
2013-03-22 14:32:00,26.0,5.0,29.74,WSW,257,8.0,13.0,40,0.00,,,0.00,,2013-03-22 20:32:00,
2013-03-22 14:42:00,26.0,5.0,29.74,WSW,257,8.0,13.0,40,0.00,,,0.00,,2013-03-22 20:42:00,
2013-03-22 14:52:00,27.0,5.0,29.74,South,191,0.0,14.0,38,0.00,,,0.00,,2013-03-22 20:52:00,
2013-03-22 15:02:00,27.0,6.0,29.74,WNW,288,9.0,15.0,40,0.00,,,0.00,,2013-03-22 21:02:00,
2013-03-22 15:12:00,26.0,3.0,29.73,WNW,302,11.0,18.0,36,0.00,,,0.00,,2013-03-22 21:12:00,
2013-03-22 15:22:00,26.0,3.0,29.73,WNW,302,11.0,18.0,36,0.00,,,0.00,,2013-03-22 21:22:00,
2013-03-22 15:32:00,26.0,3.0,29.74,SW,232,3.0,10.0,36,0.00,,,0.00,,2013-03-22 21:32:00,
2013-03-22 15:42:00,26.0,3.0,29.74,SW,232,3.0,10.0,36,0.00,,,0.00,,2013-03-22 21:42:00,
2013-03-22 15:53:00,29.0,4.0,29.73,NW,314,2.0,10.0,33,0.00,,,0.00,,2013-03-22 21:53:00,
2013-03-22 16:02:00,27.0,1.0,29.72,WNW,288,10.0,15.0,32,0.00,,,0.00,,2013-03-22 22:02:00,
2013-03-22 16:12:00,27.0,1.0,29.72,WNW,288,10.0,15.0,32,0.00,,,0.00,,2013-03-22 22:12:00,
2013-03-22 16:23:00,26.0,0.0,29.74,West,264,2.0,13.0,32,0.00,,,0.00,,2013-03-22 22:23:00,
2013-03-22 16:32:00,26.0,0.0,29.74,SSW,195,4.0,8.0,31,0.00,,,0.00,,2013-03-22 22:32:00,
2013-03-22 16:42:00,26.0,0.0,29.74,SSW,195,4.0,8.0,31,0.00,,,0.00,,2013-03-22 22:42:00,
2013-03-22 16:53:00,26.0,1.0,29.75,West,272,2.0,13.0,33,0.00,,,0.00,,2013-03-22 22:53:00,
2013-03-22 17:02:00,26.0,3.0,29.75,NNW,344,0.0,11.0,36,0.00,,,0.00,,2013-03-22 23:02:00,
2013-03-22 17:12:00,26.0,3.0,29.75,NNW,344,0.0,11.0,36,0.00,,,0.00,,2013-03-22 23:12:00,
2013-03-22 17:22:00,25.0,4.0,29.76,NNW,333,4.0,13.0,39,0.00,,,0.00,,2013-03-22 23:22:00,
2013-03-22 17:32:00,25.0,3.0,29.78,WNW,293,5.0,11.0,38,0.00,,,0.00,,2013-03-22 23:32:00,
2013-03-22 17:42:00,25.0,3.0,29.78,WNW,293,5.0,11.0,38,0.00,,,0.00,,2013-03-22 23:42:00,
2013-03-22 17:52:00,24.0,3.0,29.76,NW,307,1.0,8.0,40,0.00,,,0.00,,2013-03-22 23:52:00,
2013-03-22 18:02:00,24.0,4.0,29.78,SSW,204,5.0,11.0,42,0.00,,,0.00,,2013-03-23 00:02:00,
2013-03-22 18:12:00,24.0,4.0,29.78,SSW,204,5.0,11.0,42,0.00,,,0.00,,2013-03-23 00:12:00,
2013-03-22 18:23:00,24.0,4.0,29.76,SSW,192,5.0,10.0,41,0.00,,,0.00,,2013-03-23 00:23:00,
2013-03-22 18:32:00,24.0,3.0,29.78,South,175,6.0,11.0,40,0.00,,,0.00,,2013-03-23 00:32:00,
2013-03-22 18:42:00,24.0,4.0,29.78,South,178,3.0,9.0,41,0.00,,,0.00,,2013-03-23 00:42:00,
2013-03-22 18:52:00,24.0,4.0,29.78,South,178,3.0,9.0,41,0.00,,,0.00,,2013-03-23 00:52:00,
2013-03-22 19:03:00,23.0,4.0,29.78,SSE,159,2.0,6.0,43,0.00,,,0.00,,2013-03-23 01:03:00,
2013-03-22 19:12:00,23.0,4.0,29.78,SSE,159,2.0,6.0,43,0.00,,,0.00,,2013-03-23 01:12:00,
2013-03-22 19:22:00,23.0,4.0,29.80,ENE,76,3.0,7.0,43,0.00,,,0.00,,2013-03-23 01:22:00,
2013-03-22 19:32:00,22.0,5.0,29.78,NE,35,8.0,15.0,48,0.00,,,0.00,,2013-03-23 01:32:00,
2013-03-22 19:42:00,22.0,5.0,29.78,NE,35,8.0,15.0,48,0.00,,,0.00,,2013-03-23 01:42:00,
2013-03-22 19:52:00,22.0,6.0,29.79,NE,40,5.0,13.0,49,0.00,,,0.00,,2013-03-23 01:52:00,
2013-03-22 20:02:00,21.0,6.0,29.80,NNE,27,8.0,14.0,51,0.00,,,0.00,,2013-03-23 02:02:00,
2013-03-22 20:12:00,21.0,6.0,29.80,NNE,27,8.0,14.0,51,0.00,,,0.00,,2013-03-23 02:12:00,
2013-03-22 20:22:00,21.0,8.0,29.82,NE,54,8.0,12.0,56,0.00,,,0.00,,2013-03-23 02:22:00,
2013-03-22 20:32:00,20.0,9.0,29.80,NE,36,4.0,11.0,63,0.00,,,0.00,,2013-03-23 02:32:00,
2013-03-22 20:42:00,20.0,9.0,29.80,NE,36,4.0,11.0,63,0.00,,,0.00,,2013-03-23 02:42:00,
2013-03-22 20:52:00,20.0,10.0,29.80,NNE,24,8.0,12.0,65,0.00,,,0.00,,2013-03-23 02:52:00,
2013-03-22 21:02:00,18.0,13.0,29.82,NNE,30,8.0,15.0,79,0.00,,,0.00,,2013-03-23 03:02:00,
2013-03-22 21:12:00,18.0,13.0,29.82,NNE,30,8.0,15.0,79,0.00,,,0.00,,2013-03-23 03:12:00,
2013-03-22 21:22:00,17.0,13.0,29.82,NE,36,10.0,16.0,83,0.00,,,0.00,,2013-03-23 03:22:00,
2013-03-22 21:33:00,17.0,13.0,29.83,NE,41,5.0,10.0,84,0.00,,,0.00,,2013-03-23 03:33:00,
2013-03-22 21:43:00,17.0,13.0,29.83,NE,41,5.0,10.0,84,0.00,,,0.00,,2013-03-23 03:43:00,
2013-03-22 21:53:00,16.0,12.0,29.84,NE,52,6.0,9.0,84,0.00,,,0.00,,2013-03-23 03:53:00,
2013-03-22 22:02:00,16.0,12.0,29.85,ENE,71,5.0,10.0,84,0.00,,,0.00,,2013-03-23 04:02:00,
2013-03-22 22:12:00,16.0,12.0,29.85,ENE,71,5.0,10.0,84,0.00,,,0.00,,2013-03-23 04:12:00,
2013-03-22 22:23:00,16.0,12.0,29.85,NE,53,5.0,9.0,83,0.00,,,0.00,,2013-03-23 04:23:00,
2013-03-22 22:32:00,16.0,10.0,29.85,NE,49,6.0,10.0,76,0.00,,,0.00,,2013-03-23 04:32:00,
2013-03-22 22:43:00,16.0,10.0,29.85,NE,49,6.0,10.0,76,0.00,,,0.00,,2013-03-23 04:43:00,
2013-03-22 22:53:00,16.0,9.0,29.85,NE,53,5.0,7.0,72,0.00,,,0.00,,2013-03-23 04:53:00,
2013-03-22 23:02:00,16.0,9.0,29.86,NE,45,5.0,10.0,74,0.00,,,0.00,,2013-03-23 05:02:00,
2013-03-22 23:12:00,16.0,9.0,29.86,NE,45,5.0,10.0,74,0.00,,,0.00,,2013-03-23 05:12:00,
2013-03-22 23:22:00,15.0,10.0,29.86,NE,42,5.0,7.0,80,0.00,,,0.00,,2013-03-23 05:22:00,
2013-03-22 23:32:00,15.0,11.0,29.84,NNE,33,3.0,8.0,83,0.00,,,0.00,,2013-03-23 05:32:00,
2013-03-22 23:42:00,15.0,11.0,29.84,NNE,33,3.0,8.0,83,0.00,,,0.00,,2013-03-23 05:42:00,
2013-03-22 23:52:00,15.0,11.0,29.84,NNE,32,3.0,9.0,84,0.00,,,0.00,,2013-03-23 05:52:00,